GW4987 Weather Reports


time (UTC)temp
F
wind
direction
speed
knots
gust
knots
rain 1hr
in
rain 24hr
in
rain mn
in
humidity
%
barometer
mb
20260507090509 47 290 2.6 4.3 0.00 0.00 0.00 53 1020.3
20260507090009 47 266 5.2 5.2 0.00 0.00 0.00 53 1020.3
20260507085547 47 273 4.3 4.3 0.00 0.00 0.00 53 1020.2
20260507083546 49 240 1.7 1.7 0.00 0.00 0.00 50 1020.6
20260507083009 49 113 0.0 1.7 0.00 0.00 0.00 49 1020.2
20260507082547 50 112 2.6 2.6 0.00 0.00 0.00 47 1020.6
20260507082046 51 72 1.7 2.6 0.00 0.00 0.00 47 1020.5
20260507081510 52 232 1.7 2.6 0.00 0.00 0.00 45 1020.3
20260507081047 52 124 0.0 2.6 0.00 0.00 0.00 45 1020.4
20260507080546 52 326 0.0 2.6 0.00 0.00 0.00 45 1020.5
20260507080010 53 235 1.7 5.2 0.00 0.00 0.00 44 1020.3
20260507075547 53 250 5.2 7.8 0.00 0.00 0.00 43 1020.3
20260507075046 53 268 5.2 7.0 0.00 0.00 0.00 44 1020.2
20260507074547 52 275 5.2 5.2 0.00 0.00 0.00 45 1020.2
20260507074010 52 282 0.0 3.5 0.00 0.00 0.00 45 1020.2
20260507073546 50 276 2.6 2.6 0.00 0.00 0.00 47 1020.3
20260507073047 50 258 1.7 2.6 0.00 0.00 0.00 48 1020.3
20260507072547 50 37 3.5 3.5 0.00 0.00 0.00 48 1020.3
20260507072010 50 79 2.6 3.5 0.00 0.00 0.00 47 1020.4
20260507071547 51 121 2.6 2.6 0.00 0.00 0.00 47 1020.2
20260507071047 51 93 1.7 3.5 0.00 0.00 0.00 46 1020.3
20260507070513 52 107 1.7 2.6 0.00 0.00 0.00 45 1020.3
20260507070008 53 228 3.5 5.2 0.00 0.00 0.00 44 1020.2
20260507065547 53 213 1.7 5.2 0.00 0.00 0.00 43 1020.3
20260507065047 53 263 4.3 5.2 0.00 0.00 0.00 43 1020.3
20260507064546 54 255 4.3 7.8 0.00 0.00 0.00 43 1020.4
20260507064046 54 282 2.6 5.2 0.00 0.00 0.00 43 1020.4
20260507063547 53 280 4.3 4.3 0.00 0.00 0.00 43 1020.4
20260507063010 52 236 4.3 6.1 0.00 0.00 0.00 44 1020.3
20260507062547 52 137 2.6 3.5 0.00 0.00 0.00 44 1020.3
20260507062047 52 204 0.0 1.7 0.00 0.00 0.00 44 1020.2
20260507060046 54 194 2.6 7.0 0.00 0.00 0.00 41 1020.1
20260507055546 54 201 2.6 3.5 0.00 0.00 0.00 42 1020.1
20260507055047 54 170 2.6 4.3 0.00 0.00 0.00 42 1020.2
20260507054510 54 185 3.5 4.3 0.00 0.00 0.00 41 1020.1
20260507054010 54 213 4.3 5.2 0.00 0.00 0.00 41 1020.2
20260507053547 55 197 2.6 5.2 0.00 0.00 0.00 41 1020.2
20260507053010 55 258 2.6 8.7 0.00 0.00 0.00 40 1020.0
20260507052546 55 241 4.3 7.8 0.00 0.00 0.00 40 1020.1
20260507052046 55 242 8.7 9.6 0.00 0.00 0.00 40 1020.0
20260507051547 55 196 6.1 7.8 0.00 0.00 0.00 40 1020.0
20260507051009 55 257 3.5 5.2 0.00 0.00 0.00 40 1020.1
20260507050546 55 182 1.7 4.3 0.00 0.00 0.00 40 1019.9
20260507050046 55 184 2.6 7.0 0.00 0.00 0.00 40 1019.8
20260507045509 56 211 4.3 10.4 0.00 0.00 0.00 40 1019.8
20260507045009 56 167 2.6 11.3 0.00 0.00 0.00 39 1020.1
20260507044547 56 269 5.2 12.2 0.00 0.00 0.00 40 1019.7
20260507044046 56 221 2.6 7.8 0.00 0.00 0.00 40 1019.8
20260507043547 56 238 4.3 8.7 0.00 0.00 0.00 39 1019.7
20260507043047 56 254 5.2 9.6 0.00 0.00 0.00 39 1019.7
20260507041046 56 213 4.3 9.6 0.00 0.00 0.00 39 1019.5
20260507040509 56 257 7.0 12.2 0.00 0.00 0.00 39 1019.4
20260507034546 57 217 4.3 13.9 0.00 0.00 0.00 38 1019.3
20260507034046 57 256 7.0 12.2 0.00 0.00 0.00 38 1019.4
20260507033547 57 254 5.2 12.2 0.00 0.00 0.00 38 1019.0
20260507033010 57 231 6.1 13.0 0.00 0.00 0.00 38 1019.3
20260507032546 57 239 5.2 15.6 0.00 0.00 0.00 37 1018.9
20260507032047 57 260 6.1 10.4 0.00 0.00 0.00 37 1018.8
20260507030547 58 258 2.6 6.1 0.00 0.00 0.00 37 1018.8
20260507030010 58 196 2.6 4.3 0.00 0.00 0.00 37 1018.8
20260507025546 59 286 4.3 5.2 0.00 0.00 0.00 36 1018.9
20260507025046 59 286 4.3 5.2 0.00 0.00 0.00 36 1018.7
20260507024547 59 286 4.3 5.2 0.00 0.00 0.00 36 1018.7
20260507024011 59 286 4.3 5.2 0.00 0.00 0.00 36 1018.5
20260507023546 59 286 4.3 5.2 0.00 0.00 0.00 36 1018.4
20260507023047 59 282 5.2 5.2 0.00 0.00 0.00 36 1018.2
20260507021009 60 262 13.9 14.8 0.00 0.00 0.00 34 1018.0
20260507020546 63 275 13.0 13.0 0.00 0.00 0.00 32 1018.0
20260507020047 63 275 13.0 13.0 0.00 0.00 0.00 32 1018.0
20260507014047 63 275 13.0 13.0 0.00 0.00 0.00 32 1018.0
20260507013509 63 257 10.4 14.8 0.00 0.00 0.00 31 1017.9
20260507013046 64 248 7.0 11.3 0.00 0.00 0.00 31 1017.7
20260507012546 64 226 7.8 13.9 0.00 0.00 0.00 30 1017.8
20260507012046 65 253 10.4 11.3 0.00 0.00 0.00 29 1017.9
20260507010009 66 237 10.4 14.8 0.00 0.00 0.00 29 1017.7
20260507005546 66 272 12.2 13.9 0.00 0.00 0.00 29 1017.7
20260507005047 67 218 9.6 14.8 0.00 0.00 0.00 28 1017.8
20260507004510 67 247 7.8 11.3 0.00 0.00 0.00 28 1017.8
20260507004009 67 250 4.3 8.7 0.00 0.00 0.00 28 1017.8
20260507003547 66 193 6.1 13.0 0.00 0.00 0.00 29 1017.7
20260507003009 68 281 4.3 11.3 0.00 0.00 0.00 27 1017.7
20260507002547 67 214 7.8 11.3 0.00 0.00 0.00 27 1017.8
20260507002047 67 265 6.1 13.0 0.00 0.00 0.00 28 1017.5
20260507000546 68 217 6.1 10.4 0.00 0.00 0.00 27 1017.6
20260507000046 68 250 6.1 9.6 0.00 0.00 0.00 28 1017.5
20260506235547 67 218 8.7 14.8 0.00 0.00 0.00 28 1017.6
20260506233546 67 212 11.3 16.5 0.00 0.00 0.00 27 1017.6
20260506233046 67 249 5.2 12.2 0.00 0.00 0.00 27 1017.6
20260506232547 68 198 4.3 11.3 0.00 0.00 0.00 27 1017.7
20260506232009 68 262 1.7 8.7 0.00 0.00 0.00 27 1017.8
20260506231546 70 230 4.3 7.0 0.00 0.00 0.00 25 1017.6
20260506231047 67 250 6.1 9.6 0.00 0.00 0.00 26 1017.7
20260506230510 67 176 5.2 8.7 0.00 0.00 0.00 27 1017.5
20260506230010 67 221 4.3 4.3 0.00 0.00 0.00 26 1017.5
20260506225547 65 103 2.6 7.0 0.00 0.00 0.00 27 1017.6
20260506225009 65 289 5.2 11.3 0.00 0.00 0.00 27 1017.6
20260506224546 66 261 13.0 13.9 0.00 0.00 0.00 26 1017.7
20260506224047 67 188 5.2 7.8 0.00 0.00 0.00 26 1017.6
20260506222046 67 295 9.6 13.0 0.00 0.00 0.00 26 1017.9
20260506221509 67 310 2.6 7.0 0.00 0.00 0.00 26 1017.9
20260506221009 67 84 2.6 4.3 0.00 0.00 0.00 26 1018.0
20260506220546 66 31 1.7 3.5 0.00 0.00 0.00 26 1018.0
20260506220047 68 70 5.2 6.1 0.00 0.00 0.00 24 1018.0
20260506215547 66 50 1.7 7.0 0.00 0.00 0.00 26 1018.0
20260506215047 67 89 2.6 5.2 0.00 0.00 0.00 25 1018.0
20260506214547 66 334 5.2 12.2 0.00 0.00 0.00 26 1018.1
20260506214009 68 358 7.0 7.8 0.00 0.00 0.00 24 1018.2
20260506213546 69 14 6.1 13.0 0.00 0.00 0.00 24 1018.2
20260506213047 68 10 7.0 14.8 0.00 0.00 0.00 24 1018.4
20260506212509 68 279 4.3 7.8 0.00 0.00 0.00 25 1018.3
20260506212009 66 309 4.3 7.8 0.00 0.00 0.00 26 1018.2
20260506211547 66 92 2.6 6.1 0.00 0.00 0.00 25 1018.3
20260506211009 69 110 4.3 7.8 0.00 0.00 0.00 25 1018.4
20260506210547 68 86 1.7 9.6 0.00 0.00 0.00 25 1018.4
20260506210047 65 74 5.2 10.4 0.00 0.00 0.00 26 1018.6
20260506205547 67 61 6.1 11.3 0.00 0.00 0.00 25 1018.6
20260506205047 67 329 2.6 5.2 0.00 0.00 0.00 26 1018.6
20260506204547 67 2 2.6 8.7 0.00 0.00 0.00 26 1018.8
20260506204047 69 335 7.0 7.0 0.00 0.00 0.00 25 1018.6
20260506203547 67 3 6.1 6.1 0.00 0.00 0.00 25 1018.5
20260506203010 66 292 7.0 12.2 0.00 0.00 0.00 26 1018.7
20260506202546 65 140 2.6 7.0 0.00 0.00 0.00 27 1018.8
20260506202047 64 304 11.3 13.9 0.00 0.00 0.00 27 1018.6
20260506200010 65 339 6.1 10.4 0.00 0.00 0.00 27 1018.7
20260506195547 64 245 7.8 9.6 0.00 0.00 0.00 28 1018.8
20260506195047 63 305 10.4 13.9 0.00 0.00 0.00 28 1018.8
20260506194509 63 341 3.5 11.3 0.00 0.00 0.00 29 1018.9
20260506194010 64 34 5.2 13.9 0.00 0.00 0.00 28 1018.8
20260506193547 64 286 13.9 15.6 0.00 0.00 0.00 28 1018.9
20260506193009 64 26 4.3 10.4 0.00 0.00 0.00 28 1019.0
20260506192546 63 296 10.4 13.0 0.00 0.00 0.00 28 1018.9
20260506192047 63 49 6.1 10.4 0.00 0.00 0.00 28 1018.8
20260506191546 63 290 6.1 16.5 0.00 0.00 0.00 28 1018.7
20260506191009 65 8 11.3 13.0 0.00 0.00 0.00 27 1018.8
20260506190547 64 13 9.6 11.3 0.00 0.00 0.00 27 1018.8
20260506190047 63 28 4.3 9.6 0.00 0.00 0.00 27 1019.0
20260506185547 63 18 5.2 13.0 0.00 0.00 0.00 28 1019.2
20260506183546 62 313 12.2 14.8 0.00 0.00 0.00 29 1018.8
20260506183046 61 317 4.3 6.1 0.00 0.00 0.00 29 1019.0
20260506182547 64 13 7.0 8.7 0.00 0.00 0.00 28 1019.2
20260506182009 63 40 2.6 5.2 0.00 0.00 0.00 30 1019.2
20260506181546 62 71 7.0 10.4 0.00 0.00 0.00 30 1019.4
20260506181046 61 293 4.3 10.4 0.00 0.00 0.00 31 1019.4
20260506180510 62 351 6.1 8.7 0.00 0.00 0.00 30 1019.2
20260506180010 62 72 8.7 12.2 0.00 0.00 0.00 30 1019.3
20260506175546 62 143 2.6 3.5 0.00 0.00 0.00 31 1019.4
20260506175010 61 15 7.0 9.6 0.00 0.00 0.00 31 1019.3
20260506174547 61 112 9.6 10.4 0.00 0.00 0.00 31 1019.3
20260506174047 60 327 0.0 8.7 0.00 0.00 0.00 33 1019.2
20260506173546 61 39 3.5 6.1 0.00 0.00 0.00 32 1019.3
20260506173010 60 54 5.2 11.3 0.00 0.00 0.00 32 1019.2
20260506172547 60 74 2.6 4.3 0.00 0.00 0.00 32 1019.0
20260506172047 58 104 3.5 7.0 0.00 0.00 0.00 34 1019.0
20260506171511 57 30 1.7 10.4 0.00 0.00 0.00 35 1019.2
20260506171009 57 293 0.0 4.3 0.00 0.00 0.00 34 1019.2
20260506170547 57 213 5.2 6.1 0.00 0.00 0.00 35 1018.9
20260506170047 58 251 2.6 9.6 0.00 0.00 0.00 34 1018.9
20260506165546 57 323 3.5 11.3 0.00 0.00 0.00 35 1018.8
20260506165046 57 286 0.0 6.1 0.00 0.00 0.00 35 1018.9
20260506164547 58 16 3.5 5.2 0.00 0.00 0.00 34 1019.3
20260506164009 57 300 4.3 6.1 0.00 0.00 0.00 35 1019.0
20260506163546 56 310 4.3 10.4 0.00 0.00 0.00 36 1018.9
20260506163047 55 288 8.7 8.7 0.00 0.00 0.00 36 1018.8
20260506162509 57 333 4.3 5.2 0.00 0.00 0.00 34 1018.8
20260506162009 56 340 5.2 6.1 0.00 0.00 0.00 34 1018.9
20260506161546 56 305 5.2 11.3 0.00 0.00 0.00 35 1018.7
20260506161009 55 48 3.5 5.2 0.00 0.00 0.00 36 1018.7
20260506160547 55 133 5.2 6.1 0.00 0.00 0.00 35 1018.8
20260506160046 55 341 4.3 7.0 0.00 0.00 0.00 36 1018.6
20260506155547 54 276 2.6 8.7 0.00 0.00 0.00 37 1018.6
20260506155047 54 324 1.7 3.5 0.00 0.00 0.00 37 1018.6
20260506154546 54 266 7.8 8.7 0.00 0.00 0.00 37 1018.8
20260506154046 54 1 6.1 7.0 0.00 0.00 0.00 37 1018.6
20260506153547 53 212 2.6 7.0 0.00 0.00 0.00 37 1018.5
20260506151546 55 177 3.5 5.2 0.00 0.00 0.00 36 1018.5
20260506151047 54 309 4.3 5.2 0.00 0.00 0.00 38 1018.5
20260506150547 53 32 4.3 6.1 0.00 0.00 0.00 36 1018.4
20260506150011 52 261 5.2 6.1 0.00 0.00 0.00 38 1018.4
20260506145547 53 266 2.6 3.5 0.00 0.00 0.00 38 1018.6
20260506145046 53 353 3.5 4.3 0.00 0.00 0.00 38 1018.5
20260506144510 51 133 1.7 2.6 0.00 0.00 0.00 39 1018.3
20260506144047 51 343 5.2 7.0 0.00 0.00 0.00 41 1018.4
20260506143547 51 336 2.6 3.5 0.00 0.00 0.00 40 1018.4
20260506143010 52 187 1.7 2.6 0.00 0.00 0.00 42 1018.3
20260506142546 53 269 2.6 2.6 0.00 0.00 0.00 44 1018.4
20260506142046 52 62 2.6 4.3 0.00 0.00 0.00 45 1018.2
20260506141546 51 103 3.5 4.3 0.00 0.00 0.00 45 1018.4
20260506141009 51 71 2.6 4.3 0.00 0.00 0.00 47 1018.2
20260506140546 50 89 2.6 4.3 0.00 0.00 0.00 47 1018.3
20260506140047 50 113 2.6 4.3 0.00 0.00 0.00 48 1018.2
20260506135547 50 94 3.5 4.3 0.00 0.00 0.00 49 1018.3
20260506135010 50 103 2.6 2.6 0.00 0.00 0.00 49 1018.2
20260506134547 48 103 1.7 2.6 0.00 0.00 0.00 52 1018.2
20260506134046 45 148 1.7 2.6 0.00 0.00 0.00 56 1018.0
20260506133546 44 131 0.0 2.6 0.00 0.00 0.00 59 1018.0
20260506133047 42 60 0.0 2.6 0.00 0.00 0.00 61 1018.0
20260506131047 38 271 2.6 2.6 0.00 0.00 0.00 69 1017.9
20260506130510 37 255 1.7 2.6 0.00 0.00 0.00 72 1018.0
20260506130010 37 313 1.7 1.7 0.00 0.00 0.00 73 1017.8
20260506125546 36 254 2.6 2.6 0.00 0.00 0.00 74 1018.0
20260506125010 35 311 1.7 2.6 0.00 0.00 0.00 75 1018.0
20260506123011 37 0 0.0 1.7 0.00 0.00 0.00 73 1017.5
20260506122547 36 193 0.0 1.7 0.00 0.00 0.00 73 1017.4
20260506122047 38 193 0.0 2.6 0.00 0.00 0.00 70 1017.2
20260506121510 38 201 1.7 2.6 0.00 0.00 0.00 71 1017.4
20260506121010 37 268 2.6 2.6 0.00 0.00 0.00 72 1017.4
20260506120547 37 252 1.7 3.5 0.00 0.00 0.00 71 1017.6
20260506120047 38 246 0.0 0.0 0.00 0.00 0.00 68 1017.5
20260506115547 38 246 0.0 0.0 0.00 0.00 0.00 68 1017.3
20260506115047 38 246 0.0 0.0 0.00 0.00 0.00 68 1017.6
20260506112010 40 252 3.5 3.5 0.00 0.00 0.00 65 1017.2
20260506111547 39 255 4.3 4.3 0.00 0.00 0.00 66 1017.3
20260506111011 38 253 2.6 2.6 0.00 0.00 0.00 67 1017.2
20260506110547 38 185 1.7 1.7 0.00 0.00 0.00 66 1017.5
20260506110047 39 340 0.0 1.7 0.00 0.00 0.00 66 1017.3
20260506105547 38 180 0.0 0.0 0.00 0.00 0.00 68 1017.2
20260506105010 38 180 0.0 0.0 0.00 0.00 0.00 68 1017.3
20260506104546 37 211 2.6 2.6 0.00 0.00 0.00 69 1017.1
20260506104047 37 125 2.6 4.3 0.00 0.00 0.00 67 1017.1
20260506102047 40 237 2.6 3.5 0.00 0.00 0.00 63 1017.0
20260506101547 40 237 2.6 3.5 0.00 0.00 0.00 63 1017.1
20260506101047 40 251 3.5 4.3 0.00 0.00 0.00 63 1017.1
20260506100547 40 261 4.3 4.3 0.00 0.00 0.00 63 1017.1
20260506100009 40 227 2.6 3.5 0.00 0.00 0.00 62 1017.0
20260506095547 41 235 3.5 4.3 0.00 0.00 0.00 61 1017.2
20260506095046 41 249 3.5 3.5 0.00 0.00 0.00 60 1017.0
20260506094509 42 225 3.5 4.3 0.00 0.00 0.00 59 1017.2
20260506092546 41 217 2.6 3.5 0.00 0.00 0.00 61 1017.1
20260506092046 41 217 2.6 3.5 0.00 0.00 0.00 61 1016.8
20260506091547 41 217 2.6 3.5 0.00 0.00 0.00 61 1016.7
20260506091009 41 217 2.6 3.5 0.00 0.00 0.00 61 1016.7